User: anonymous   Login
Location: Newark
(5.8900°S, 42.6378°W)
Time: 22:28:56
(UTC+00:00)
Language:

Transit 2A Rocket - Orbit

View from above orbital plane
View from above orbital plane
View from above satellite
View from above satellite

Ground track
Ground track

The orbit data is extracted from the following two-line orbital elements,

1    47U 60007C   19261.09752371 -.00000027  00000-0  18918-4 0  9998
2    47  66.6661 165.8830 0223660 144.9128 216.6946 14.42048925 95718
Epoch (UTC): 18 September 2019 02:20:26
Eccentricity: 0.0223660
inclination: 66.6661°
perigee height: 592 km
apogee height: 911 km
right ascension of ascending node: 165.8830°
argument of perigee: 144.9128°
revolutions per day: 14.42048925
mean anomaly at epoch: 216.6946°
orbit number at epoch: 9571

The dashed part of the orbit path shows where the satellite is in the earth's shadow,  

DLR